Flag for U.S.A. Weather past 2 weeks in Midland, Texas, U.S.A.

Now
75 °F

Clear.


Feels Like: 77 °F
Forecast: 73 / 99 °F
Wind: No wind

Location: Midland - Midland Airpark

Current Time: Jul 23, 2014 at 7:03:33 AM

Latest Report: Jul 23, 2014 at 6:15 AM


Visibility: 10 mi

Pressure: 30.19 "Hg

Humidity: 67%

Dew point: 64 °F

Location of MidlandLocation

Historic Weather in Midland — Graph

°F

Midland temperature yesterday

Maximum temperature yesterday: 94 °F (at 6:55 PM)
Minimum temperature yesterday: 79 °F (at 8:15 AM)
Average temperature yesterday: 85 °F

Past Weeks' High & Low Weather Summary

 TemperatureHumidityPressure
High100 °F (Jul 21, 4:55 PM)91% (Jul 17, 10:35 AM)30.20 "Hg (Jul 17, 10:35 AM)
Low68 °F (Jul 18, 5:35 AM)16% (Jul 14, 5:10 PM)29.88 "Hg (Jul 16, 6:55 PM)
Average83 °F52%30.07 "Hg
* Reported Jul 8 5:30 AM — Jul 23 5:55 AM, Midland, Weather by CustomWeather, © 2014

Note: Actual official high and low records may vary slightly from our data, if they occured in-between our weather recording intervals... More about our weather records

Advertising

Midland weather history for previous 24 hours

 ConditionsComfort  
Time TempWeatherWind HumidityBarometerVisibility
5:55 AM
Jul 23
75 °FClear.No wind67%30.19 "Hg10 mi
5:35 AM76 °FClear.3 mph66%30.19 "Hg10 mi
5:15 AM78 °FClear.No wind61%30.18 "Hg10 mi
4:55 AM78 °FClear.3 mph61%30.18 "Hg10 mi
4:35 AM79 °FClear.3 mph59%30.18 "Hg10 mi
4:15 AM79 °FClear.3 mph58%30.18 "Hg10 mi
3:55 AM80 °FClear.5 mph57%30.18 "Hg10 mi
3:15 AM81 °FClear.7 mph56%30.18 "Hg10 mi
2:55 AM81 °FClear.7 mph55%30.18 "Hg10 mi
12:55 AM84 °FClear.7 mph46%30.18 "Hg10 mi
12:15 AM84 °FClear.8 mph44%30.18 "Hg10 mi
11:55 PM
Jul 22
85 °FClear.9 mph44%30.18 "Hg10 mi
11:15 PM87 °FClear.9 mph40%30.17 "Hg10 mi
10:55 PM89 °FClear.9 mph37%30.16 "Hg10 mi
10:15 PM89 °FPassing clouds.5 mph39%30.14 "Hg10 mi
9:55 PM89 °FPassing clouds.No wind38%30.14 "Hg10 mi
9:35 PM91 °FSunny.No wind32%30.12 "Hg10 mi
9:15 PM91 °FSunny.3 mph31%30.10 "Hg10 mi
8:55 PM92 °FSunny.3 mph32%30.10 "Hg10 mi
8:35 PM92 °FSunny.6 mph32%30.10 "Hg10 mi
8:15 PM93 °FSunny.No wind32%30.09 "Hg10 mi
7:55 PM93 °FSunny.6 mph31%30.09 "Hg10 mi
7:35 PM93 °FSunny.6 mph30%30.09 "Hg10 mi
6:55 PM94 °FSunny.5 mph31%30.09 "Hg10 mi
11:55 AM90 °FSunny.7 mph45%30.15 "Hg10 mi
11:15 AM87 °FSunny.8 mph54%30.15 "Hg7 mi
10:55 AM86 °FSunny.6 mph54%30.14 "Hg10 mi
10:35 AM86 °FSunny.8 mph56%30.14 "Hg10 mi
10:15 AM83 °FSunny.6 mph63%30.14 "Hg7 mi
9:55 AM82 °FSunny.3 mph65%30.14 "Hg7 mi
9:35 AM82 °FSunny.3 mph69%30.14 "Hg7 mi
9:15 AM81 °FSunny.No wind70%30.14 "Hg7 mi
8:55 AM81 °FSunny.No wind72%30.15 "Hg7 mi
8:35 AM80 °FScattered clouds.5 mph73%30.15 "Hg7 mi
8:15 AM79 °FSunny.7 mph75%30.15 "Hg5 mi
7:55 AM79 °FClear.3 mph75%30.14 "Hg7 mi
7:35 AM79 °FClear.7 mph75%30.12 "Hg7 mi
7:15 AM79 °FClear.8 mph75%30.12 "Hg7 mi
Weather by CustomWeather, © 2014

See weather overviewHow to use our weather pages